TimeEDT,TemperatureF,Dew PointF,Humidity,Sea Level PressureIn,VisibilityMPH,Wind Direction,Wind SpeedMPH,Gust SpeedMPH,PrecipitationIn,Events,Conditions,WindDirDegrees,DateUTC
12:14 AM,68.4,58.8,71,29.96,10.0,ESE,8.1,-,N/A,,Scattered Clouds,110,2013-07-22 04:14:00
12:34 AM,68.4,58.5,71,29.97,10.0,ESE,5.8,-,N/A,,Scattered Clouds,110,2013-07-22 04:34:00
12:53 AM,68.2,58.3,71,29.97,10.0,East,8.1,-,N/A,,Clear,100,2013-07-22 04:53:00
1:13 AM,67.5,57.9,71,29.95,10.0,East,6.9,-,N/A,,Clear,90,2013-07-22 05:13:00
1:34 AM,67.5,57.7,71,29.95,10.0,ESE,9.2,-,N/A,,Scattered Clouds,120,2013-07-22 05:34:00
1:53 AM,67.5,57.6,70,29.95,10.0,ESE,6.9,-,N/A,,Mostly Cloudy,110,2013-07-22 05:53:00
2:13 AM,66.9,58.3,74,29.95,7.0,East,4.6,-,0.01,Rain,Heavy Rain,80,2013-07-22 06:13:00
2:33 AM,63.5,60.1,89,29.98,10.0,West,8.1,-,0.06,Rain,Light Rain,270,2013-07-22 06:33:00
2:53 AM,63.1,61.7,95,29.97,4.0,East,3.5,-,0.15,Rain,Rain,80,2013-07-22 06:53:00
3:13 AM,63.1,62.1,96,29.95,10.0,ENE,6.9,-,0.02,Rain,Light Rain,70,2013-07-22 07:13:00
3:33 AM,63.1,62.2,97,29.93,10.0,East,8.1,-,0.02,,Light Drizzle,80,2013-07-22 07:33:00
3:53 AM,63.1,62.1,96,29.93,10.0,East,5.8,-,0.02,,Overcast,80,2013-07-22 07:53:00
4:13 AM,63.1,61.7,95,29.92,10.0,ENE,4.6,-,N/A,,Overcast,60,2013-07-22 08:13:00
4:33 AM,63.1,62.1,96,29.92,10.0,East,6.9,-,N/A,,Overcast,80,2013-07-22 08:33:00
4:53 AM,63.1,61.7,95,29.91,10.0,ENE,4.6,-,N/A,,Overcast,60,2013-07-22 08:53:00
5:13 AM,63.1,61.7,95,29.90,10.0,ENE,4.6,-,N/A,,Overcast,70,2013-07-22 09:13:00
5:33 AM,63.5,61.9,94,29.89,10.0,ENE,5.8,-,N/A,Rain,Light Rain,70,2013-07-22 09:33:00
5:53 AM,63.7,62.1,94,29.90,10.0,East,3.5,-,N/A,,Overcast,90,2013-07-22 09:53:00
6:14 AM,64.4,62.4,93,29.91,10.0,Calm,Calm,-,N/A,,Overcast,0,2013-07-22 10:14:00
6:33 AM,63.7,62.1,94,29.91,10.0,Calm,Calm,-,N/A,,Overcast,0,2013-07-22 10:33:00
6:53 AM,64.2,62.4,94,29.90,10.0,East,5.8,-,N/A,,Overcast,90,2013-07-22 10:53:00
7:14 AM,65.1,61.9,89,29.90,10.0,East,5.8,-,N/A,,Overcast,100,2013-07-22 11:14:00
7:33 AM,65.3,61.7,88,29.89,10.0,ESE,9.2,-,N/A,,Overcast,120,2013-07-22 11:33:00
7:53 AM,65.3,61.7,88,29.89,10.0,SE,3.5,-,N/A,,Overcast,130,2013-07-22 11:53:00
8:13 AM,65.8,61.7,86,29.89,10.0,Calm,Calm,-,N/A,,Overcast,0,2013-07-22 12:13:00
8:22 AM,66.6,62.4,86,29.90,10.0,Calm,Calm,-,N/A,,Overcast,0,2013-07-22 12:22:00
8:56 AM,68.0,62.6,83,29.90,10.0,ESE,3.5,-,N/A,,Overcast,120,2013-07-22 12:56:00
9:07 AM,67.5,61.7,82,29.90,10.0,Calm,Calm,-,N/A,,Overcast,0,2013-07-22 13:07:00
9:13 AM,67.5,61.5,81,29.90,10.0,Calm,Calm,-,N/A,,Mostly Cloudy,0,2013-07-22 13:13:00
9:33 AM,68.4,62.2,81,29.89,10.0,SE,3.5,-,N/A,,Scattered Clouds,130,2013-07-22 13:33:00
9:44 AM,69.6,62.6,78,29.89,10.0,East,4.6,-,N/A,,Mostly Cloudy,100,2013-07-22 13:44:00
10:14 AM,70.7,63.5,78,29.89,10.0,Calm,Calm,-,N/A,,Mostly Cloudy,0,2013-07-22 14:14:00
10:33 AM,73.8,64.9,74,29.88,10.0,SSE,4.6,-,N/A,,Scattered Clouds,160,2013-07-22 14:33:00
10:54 AM,75.4,65.5,71,29.89,10.0,SSE,5.8,-,N/A,,Clear,150,2013-07-22 14:54:00
11:13 AM,75.4,65.7,72,29.88,10.0,SSE,5.8,-,N/A,,Mostly Cloudy,160,2013-07-22 15:13:00
11:33 AM,77.2,66.9,71,29.88,10.0,South,4.6,-,N/A,,Overcast,180,2013-07-22 15:33:00
11:54 AM,77.5,66.6,69,29.88,10.0,South,11.5,-,N/A,,Mostly Cloudy,180,2013-07-22 15:54:00
12:13 PM,78.3,66.4,67,29.88,10.0,South,11.5,17.3,N/A,,Mostly Cloudy,170,2013-07-22 16:13:00
12:34 PM,79.3,67.3,66,29.87,10.0,SSW,11.5,-,N/A,,Mostly Cloudy,200,2013-07-22 16:34:00
12:54 PM,78.4,67.1,68,29.87,10.0,SSW,6.9,-,N/A,,Mostly Cloudy,200,2013-07-22 16:54:00
1:13 PM,78.8,67.1,67,29.86,10.0,South,5.8,-,N/A,,Scattered Clouds,190,2013-07-22 17:13:00
1:34 PM,80.1,68.0,67,29.85,10.0,SSW,6.9,-,N/A,,Scattered Clouds,200,2013-07-22 17:34:00
1:53 PM,80.4,68.2,66,29.84,10.0,South,9.2,-,N/A,,Scattered Clouds,190,2013-07-22 17:53:00
2:14 PM,81.0,67.6,64,29.84,10.0,South,9.2,-,N/A,,Scattered Clouds,190,2013-07-22 18:14:00
2:34 PM,81.5,66.9,61,29.84,10.0,SSW,9.2,-,N/A,,Scattered Clouds,210,2013-07-22 18:34:00
2:53 PM,81.7,66.9,61,29.83,10.0,SW,9.2,-,N/A,,Scattered Clouds,230,2013-07-22 18:53:00
3:14 PM,84.2,65.5,53,29.83,10.0,WSW,11.5,-,N/A,,Scattered Clouds,240,2013-07-22 19:14:00
3:33 PM,83.7,67.1,57,29.82,10.0,SSW,10.4,-,N/A,,Scattered Clouds,200,2013-07-22 19:33:00
3:53 PM,83.1,67.1,58,29.81,10.0,SW,11.5,-,N/A,,Scattered Clouds,220,2013-07-22 19:53:00
4:14 PM,83.3,66.4,57,29.80,10.0,South,10.4,-,N/A,,Scattered Clouds,180,2013-07-22 20:14:00
4:34 PM,82.8,65.8,56,29.80,10.0,SSW,9.2,-,N/A,,Scattered Clouds,210,2013-07-22 20:34:00
4:53 PM,82.6,66.0,57,29.79,10.0,SSW,11.5,17.3,N/A,,Clear,200,2013-07-22 20:53:00
5:14 PM,83.5,65.8,55,29.78,10.0,SSW,11.5,-,N/A,,Clear,210,2013-07-22 21:14:00
5:33 PM,83.7,64.9,53,29.78,10.0,South,12.7,-,N/A,,Clear,180,2013-07-22 21:33:00
5:54 PM,83.1,65.1,54,29.77,10.0,South,9.2,-,N/A,,Scattered Clouds,190,2013-07-22 21:54:00
6:13 PM,82.9,63.7,52,29.77,10.0,SSW,9.2,-,N/A,,Scattered Clouds,200,2013-07-22 22:13:00
6:34 PM,83.3,64.6,53,29.76,10.0,SSW,4.6,-,N/A,,Clear,210,2013-07-22 22:34:00
6:54 PM,82.8,63.5,52,29.75,10.0,SW,9.2,-,N/A,,Clear,220,2013-07-22 22:54:00
7:06 PM,82.4,63.3,52,29.75,10.0,SSW,6.9,-,N/A,,Clear,200,2013-07-22 23:06:00
7:33 PM,82.0,64.8,56,29.75,10.0,South,9.2,-,N/A,,Clear,180,2013-07-22 23:33:00
7:53 PM,81.1,65.3,58,29.74,10.0,South,6.9,-,N/A,,Clear,190,2013-07-22 23:53:00
8:14 PM,80.6,65.8,61,29.74,10.0,South,5.8,-,N/A,,Clear,180,2013-07-23 00:14:00
8:33 PM,79.2,65.3,62,29.74,10.0,South,5.8,-,N/A,,Clear,180,2013-07-23 00:33:00
8:54 PM,77.5,65.3,66,29.75,10.0,South,5.8,-,N/A,,Clear,190,2013-07-23 00:54:00
9:14 PM,76.6,65.7,69,29.76,10.0,SSW,4.6,-,N/A,,Clear,200,2013-07-23 01:14:00
9:33 PM,75.4,65.5,71,29.76,10.0,South,3.5,-,N/A,,Clear,190,2013-07-23 01:33:00
9:54 PM,75.2,64.9,70,29.75,10.0,South,4.6,-,N/A,,Clear,180,2013-07-23 01:54:00
10:14 PM,74.5,64.4,71,29.75,10.0,SSE,5.8,-,N/A,,Clear,160,2013-07-23 02:14:00
10:34 PM,74.3,64.4,71,29.74,10.0,South,4.6,-,N/A,,Clear,170,2013-07-23 02:34:00
10:54 PM,73.2,64.4,74,29.75,10.0,South,4.6,-,N/A,,Clear,190,2013-07-23 02:54:00
11:13 PM,72.5,64.0,75,29.76,10.0,South,3.5,-,N/A,,Clear,190,2013-07-23 03:13:00
11:34 PM,71.6,64.4,78,29.76,10.0,South,4.6,-,N/A,,Clear,170,2013-07-23 03:34:00
11:54 PM,71.4,64.4,78,29.75,10.0,SSW,5.8,-,N/A,,Clear,200,2013-07-23 03:54:00